Location: Waco, TX
(31.5480°N, 97.1670°W)
Time: 04:05:02
(UTC-06:00)

ISS - Pass Details

Date: 15 November 2017
Orbit: 401 x 407 km, 51.6° (Epoch: 18 November)

Event Time Altitude Azimuth Distance (km) Brightness Sun altitude
Rises 23:49:22 0° 261° (W) 2,310 - -76.1°
Reaches altitude 10° 23:52:01 10° 285° (WNW) 1,453 - -76.4°
Maximum altitude 23:54:07 16° 325° (NW) 1,147 - -76.5°
Drops below altitude 10° 23:56:15 10° 6° (N) 1,455 - -76.7°
Sets 23:58:54 0° 29° (NNE) 2,315 - -76.8°
